Regional Weather Roundup
Issued by NWS Wakefield, VA

Home | Current Version | Previous Version | Text Only | Print | Product List | Glossary Off
Versions: 1 2 3 4 5 6 7 8 9 10 11 12 13 14 15 16 17 18 19 20 21 22 23 24 25 26 27 28 29 30 31 32 33 34 35 36 37 38 39 40 41 42 43 44 45 46 47 48 49 50

000
ASUS41 KAKQ 301915
RWRAKQ

REGIONAL WEATHER ROUNDUP
NATIONAL WEATHER SERVICE WAKEFIELD VA
300 PM EDT THU JUL 30 2015

Note: "fair" indicates few or no clouds below 12,000 feet with no
significant weather and/or obstructions to visibility. * = Denotes
station may not report precipitation (e.g., rain,snow,etc.),
thunder or fog.

VAZ042-051-052>054-056-302000-
NORTHERN VIRGINIA

CITY           SKY/WX    TMP DP  RH WIND       PRES   REMARKS
WASH NATIONAL  LGT RAIN  81  73  78 S9        29.88F
DULLES         CLOUDY    80  76  87 S3        29.89F
FORT BELVOIR   PTSUNNY   77  74  90 CALM      29.88F
QUANTICO       NOT AVBL
FREDERICKSBRG* MOSUNNY   92  75  57 S8        29.85F HX 103
STAFFORD*      CLOUDY    86  74  66 SW6       29.91S THUNDER
WARRENTON      TSTM      76  74  93 E7        29.92R VSB 1
CULPEPER*      PTSUNNY   75  73  95 N9        29.91F
MANASSAS*      PTSUNNY   75  75 100 CALM      29.89F
LEESBURG*      CLOUDY    84  77  79 SW6       29.89F
WINCHESTER     CLOUDY    88  73  62 W5        29.90F HX  96
FRONT ROYAL*   FAIR      81  77  89 CALM      29.89F
LURAY*         FAIR      90  73  58 SW5       29.90F HX  98
$$

VAZ048-049-060>072-079>083-302000-
CENTRAL AND SOUTH CENTRAL VIRGINIA

CITY           SKY/WX    TMP DP  RH WIND       PRES   REMARKS
RICHMOND       PTSUNNY   92  73  53 S13       29.88F HX 100
CHESTERFIELD*  FAIR      90  68  48 S9        29.90F
PETERSBURG*    MOSUNNY   91  80  69 S3        29.90F HX 109
HANOVER        MOSUNNY   92  74  55 S13       29.89F HX 101
TAPPAHANNOCK*  SUNNY     89  71  54 CALM      29.89F HX  95
QUINTON*       FAIR      89  76  64 W3        29.88F HX 100
CHARLOTTSVILLE PTSUNNY   88  74  63 SW6       29.89F HX  96
GORDONSVILLE*  CLOUDY    81  72  74 CALM      29.87F HAZE
ORANGE*        TSTM      79  73  83 CALM      29.91S
LOUISA*        MOSUNNY   90  75  62 SW7       29.87F HX 100
BUMPASS*       FAIR      91  75  58 S5        29.87F HX 101
FARMVILLE*     CLOUDY    89  75  62 S7        29.88F HX  99
CREWE*         FAIR     N/A N/A N/A S5        29.90F
FORT PICKETT*  FAIR      88  75  65 SW9       29.91F HX  98
CHASE CITY*    MOCLDY    85  79  84 W6G17     29.92F VSB 1   HX  98
CLARKSVILLE*   FAIR      88  75  66 CALM      29.91F HX  97
SOUTH HILL*    PTSUNNY   88  76  68 S6        29.97F HX  99
LAWRENCEVILLE* FAIR      90  75  62 S5        29.90F HX 100
EMPORIA*       MOSUNNY   91  72  52 E5        29.91F HX  98
$$

VAZ088>098-302000-
SOUTHEAST VIRGINIA

CITY           SKY/WX    TMP DP  RH WIND       PRES   REMARKS
NORFOLK        MOSUNNY   90  74  59 N6        29.89F HX  99
VIRGINIA BEACH MOSUNNY   92  78  63 S15       29.89F HX 107
NORFOLK NAVAL  MOSUNNY   90  75  61 N7        29.90F HX 100
WEST POINT*    MOSUNNY   92  72  51 S7        29.90F HX 100
SALUDA*        MOCLDY    89  77  66 S6        29.89F HX 101
NEWPORT NEWS   MOSUNNY   93  72  50 S15       29.89F HX 101
LANGLEY AFB    MOSUNNY   89  74  61 E9        29.89F HX  98
FORT EUSTIS    MOSUNNY   91  69  49 SE6       29.88F HX  95
WILLIAMSBURG*  MOSUNNY   97  77  52 SE6       29.90F HX 112
HR EXEC AP*    FAIR      91  73  55 SE6       29.91F HX 100
FRANKLIN*      PTSUNNY   91  73  54 SW6       29.90F HX  98
WAKEFIELD      PTSUNNY   92  72  51 VRB6      29.90F HX  99
$$

VAZ020-022-025-037-045-302000-
WEST CENTRAL AND SOUTHWEST VIRGINIA

CITY           SKY/WX    TMP DP  RH WIND       PRES   REMARKS
STAUNTON*      PTSUNNY   90  72  56 SW7       29.94F HX  97
WAYNESBORO*    FAIR      84  73  68 SW6       29.95F
HOT SPRINGS VA PTSUNNY   77  69  75 W9        30.10F
LYNCHBURG      PTSUNNY   85  73  67 VRB5      29.95F
DANVILLE       LGT RAIN  81  76  84 NE6       29.93F
SOUTH BOSTON*  FAIR      77  75  94 CALM      29.92F
MARTINSVILLE   PTSUNNY   93  71  49 NE3       29.97F HX  99
ROANOKE        MOSUNNY   91  69  48 NW9       29.97F HX  96
BLACKSBURG     PTSUNNY   87  72  60 NW7       30.06F
DUBLIN*          N/A     86  71  60 W5        30.04F
MARION*        MOSUNNY   85  71  61 NW5       30.10F
HILLSVILLE*    MOSUNNY   83  68  60 NW10      30.07F
RICHLANDS*     MOCLDY    79  71  75 W8        30.11F
WISE*          CLOUDY    81  68  65 NW6       30.15F
ABINGDON*      MOSUNNY   86  69  55 NW8       30.07F
$$

MDZ021>025-VAZ099-100-302000-
SOUTHERN MARYLAND AND THE DELMARVA PENINSULA

CITY           SKY/WX    TMP DP  RH WIND       PRES   REMARKS
PATUXENT RIVER PTSUNNY   89  73  59 SW10      29.87F HX  97
BAY BRIDGE APT   N/A     86  72  62 S9        29.86S
LEONARDTOWN    MOSUNNY   88  72  58 S8        29.89F
DOVER          MOSUNNY   89  75  62 S14G22    29.85F HX 100
GEORGETOWN     MOSUNNY   90  72  55 SW14      29.89F HX  97
EASTON         MOSUNNY   91  75  59 SW14G25   29.91  HX 102
CAMBRIDGE      MOSUNNY   90  73  58 S9        29.87F HX  98
SALISBURY      MOSUNNY   89  71  55 S12       29.88F HX  95
OCEAN CITY     MOSUNNY   84  76  76 S9G21     29.90F
WALLOPS ISLAND SUNNY     83  75  77 S13       29.91F
ACCOMACK*      SUNNY     88  73  62 S10       29.90F HX  96
$$

NCZ012>017-030>032-302000-
NORTH CENTRAL AND EASTERN NORTH CAROLINA

CITY           SKY/WX    TMP DP  RH WIND       PRES   REMARKS
ROANOKE RAPIDS FAIR      90  72  55 S3        29.90F HX  96
RALEIGH        MOSUNNY   93  74  53 SW6       29.91F HX 103
ELIZABETH CITY MOSUNNY   88  75  65 SE13      29.91F HX  97
AHOSKIE*       MOSUNNY   89  71  55 CALM      29.90F HX  95
EDENTON*         N/A     86  76  72 S14       29.92F HX  95
CURRITUCK*     PTSUNNY   90  73  57 S7G17     29.91F HX  97
KILL DEVIL HLS PTSUNNY   90  75  61 SW7       29.91F HX 100
MANTEO         CLOUDY    87  75  67 S15       29.93F HX  97
CAPE HATTERAS  MOSUNNY   86  75  69 S14       29.94F HX  95
TARBORO*         N/A     95  69  42 CALM      29.91F HX 100
GOLDSBORO      SUNNY     94  68  42 VRB5      29.88F HX  98
WASHINGTON     MOSUNNY   91  75  60 SE7       29.91F HX 101
GREENVILLE     SUNNY     95  70  43 SE3       29.93F HX 101
NEW BERN       CLOUDY    86  77  74 NE5       29.93F HX  97
WILMINGTON     MOSUNNY   89  76  65 VRB7      29.90F HX 100
$$

VAZ048-302000-
ELSEWHERE

CITY           SKY/WX    TMP DP  RH WIND       PRES   REMARKS
HARRISBURG PA  CLOUDY    84  75  74 SW5       29.84F
BALTIMORE      LGT RAIN  75  73  93 SW6       29.86F FOG
ANNAPOLIS      PTSUNNY   83  75  77 SW12G24   29.85F
ANDREWS AFB    LGT RAIN  75  73  94 W7        29.88S FOG
PHILADELPHIA   LGT RAIN  84  77  79 W13G23    29.85F
HENDERSON NC   MOSUNNY   91  69  47 SW6       29.92F HX  96
GREENSBORO     LGT RAIN  84  73  69 NW13      29.95F
ROCKY MOUNT    PTSUNNY   95  70  44 E6        29.90F HX 101
$$

VAZ100-302000-
MARINE

STATION/POSITION TIME  TEMP    WIND        PRES    WAVE   SWELL
                       AIR SEA DIR/SP/G            HT/PER HT/PER
                 (UTC) (F)     (DEG/KT/KT) (MB)    (FT/S) (FT/S)
BRANDYWINE LGT   1800   79 78  180/ 13/ 14 1012.3F
CAPE MAY NJ      1800   81 80  160/ 13/ 17 1011.9F
LEWES DE         1800   88 73  210/  9/ 15 1012.0F
15NM E FENWICK I 1850   80 79  180/ 16/ 17 1012.7F   3/10   2/10
OCEAN-CITY-INLET 1800   80 79  190/  9/ 14 1012.2F
WACHAPREAGUE VA  1800   84 87  180/ 11/ 14 1013.3F
GOOSES REEF MD   1900   84 83  170/ 14/ 16 1012.2F
COVE POINT MD    1800   84     190/ 14/ 16 1012.8F
SOLOMONS ISLAND  1800      84                N/A
BISHOPS HEAD MD  1800   83 84  180/ 12/ 15 1011.5F
PINEY POINT MD   1824          220/  9/ 11   N/A
POTOMAC MD       1900   84 84  170/ 12/ 14 1010.7F   1/ 3
CAMBRIDGE MD     1800   87 83  200/  8/ 14 1011.3F
LEWISETTA VA     1800   86 84  210/ 11/ 14 1011.8F
RAPPAHANNOCK LGT 1800          200/ 11/ 12 1013.7F
STINGRAY PT      1900   84 84  160/ 12/ 14 1012.3F   1/ 3
YORK RVR RNG VA  1800   82     140/ 12/ 13 1012.6F
YORKTOWN VA      1800   84 83   50/  7/ 10 1012.8F
JAMESTOWN VA     1900   88 87  210/  4/  6   N/A
DOMINION TERM VA 1800   86     100/  3/  4 1013.0F
KIPTOPEKE VA     1800      82  170/ 10/ 12   N/A
CHES BAY BRIDGE  1800   83 81   80/  9/ 12 1012.8F
CAPE HENRY VA    1800   83     130/ 12/ 17   N/A
CHESAPEAKE LGHT  1800   81     160/ 12/ 13 1014.3F
WILLOUBY STN VA  1800   82      70/  8/  9 1014.1F
CAPE HENRY BUOY  1828      81                N/A     2/10
1ST LANDING BUOY 1900      82              1012.1F   2/ 4
CAPE CHARLES BUO 1826                        N/A     2/10   2/10
OFFSHORE WE BUOY 1811      82                N/A     3/11   2/11
64NM E OF VA BCH 1850   82 82  190/ 14/ 16 1013.3F   3/ 9   2/ 9
DUCK PIER NC     1800   83 65  190/ 15/ 19 1012.9F
44100 DUCK FRF   1824      81                N/A     3/ 9
44056 DUCK FRF   1811      75                N/A     2/ 8
OREGON INLET NC  1800   82 83  200/ 15/ 17 1014.2F
HATTERAS NC      1800   86 83  180/  4/  9 1014.1F
DIAMOND SHLS NC  1850   84 86  180/ 19/ 25 1013.8F   5/ 5   2/10
CAPE LOOKOUT NC  1900   83     170/ 12/ 13 1012.9F
$$



USA.gov is the U.S. government's official web portal to all federal, state and local government web resources and services.